Change the Weather History Date:

Monday, July 29, 2013

  Actual Average (KTVC) Record (KTVC)
Temperature  
Mean Temperature 59 °F 69 °F  
Max Temperature 66 °F 80 °F 100 °F (1941)
Min Temperature 52 °F 58 °F 43 °F (1956)
Degree Days  
Heating Degree Days 6 1  
Month to date heating degree days 30  
Since 1 June heating degree days 142  
Since 1 July heating degree days 30  
Cooling Degree Days 0 5  
Month to date cooling degree days 145  
Year to date cooling degree days 246  
Since 1 June cooling degree days 226  
Growing Degree Days 9 (Base 50)    
Moisture  
Dew Point 54 °F    
Average Humidity 83    
Maximum Humidity 94    
Minimum Humidity 66    
Precipitation  
Precipitation 0.00 in 0.10 in 2.40 in (1996)
Month to date precipitation 2.80  
Year to date precipitation 17.51  
Sea Level Pressure  
Sea Level Pressure 30.07 in    
Wind  
Wind Speed 5 mph (NW)    
Max Wind Speed 10 mph    
Max Gust Speed 16 mph    
Visibility 9 miles    
Events Rain    
T = Trace of Precipitation, MM = Missing Value Source: NWS Daily Summary

Daily Weather History Graph

Daily Weather History Graph

Search for Another Location

Airport or City:

Trip Planner

Search our weather history database for the weather conditions in past years. The results will help you decide how hot, cold, wet, or windy it might be!

Date:

Astronomy

Jul. 29, 2013 Rise Set
Actual Time 6:28 AM EDT 9:13 PM EDT
Civil Twilight 5:54 AM EDT 9:47 PM EDT
Nautical Twilight 5:11 AM EDT 10:29 PM EDT
Astronomical Twilight 4:21 AM EDT 11:19 PM EDT
Moon 12:15 AM EDT (7/29) 2:31 PM EDT (7/29)
Length of Visible Light 15h 52m
Length of Day
14h 45m
Waning Gibbous, 51% of the Moon is Illuminated
Jul 29
Waning Gibbous
Jul 29
Last Quarter
Aug 6
New
Aug 14
First Quarter
Aug 20
Full

Hourly Weather History & Observations

Time (EDT) Temp. Dew Point Humidity Pressure Visibility Wind Dir Wind Speed Gust Speed Precip Events Conditions
12:12 AM 56.1 °F 53.6 °F 91% 29.91 in 5.0 mi NW 9.2 mph - N/A   Overcast
12:32 AM 56.3 °F 53.6 °F 91% 29.91 in 5.0 mi NW 4.6 mph - N/A   Overcast
12:52 AM 56.3 °F 53.4 °F 90% 29.92 in 10.0 mi NW 3.5 mph - N/A   Overcast
1:12 AM 56.3 °F 53.6 °F 91% 29.92 in 10.0 mi NW 4.6 mph - N/A   Overcast
1:32 AM 56.3 °F 53.6 °F 91% 29.92 in 5.0 mi NW 5.8 mph - N/A Rain Rain
1:53 AM 55.9 °F 53.8 °F 92% 29.93 in 4.0 mi Calm Calm - N/A Rain Rain
2:13 AM 56.3 °F 54.5 °F 94% 29.92 in 5.0 mi Calm Calm - N/A Rain Light Rain
2:33 AM 56.3 °F 54.3 °F 93% 29.93 in 10.0 mi Calm Calm - N/A Rain Light Rain
2:53 AM 56.7 °F 54.0 °F 91% 29.93 in 10.0 mi NNW 4.6 mph - N/A   Overcast
3:13 AM 56.7 °F 53.6 °F 89% 29.94 in 10.0 mi NW 3.5 mph - N/A   Overcast
3:33 AM 56.7 °F 53.2 °F 88% 29.94 in 10.0 mi NNW 3.5 mph - N/A   Overcast
3:53 AM 57.2 °F 53.6 °F 88% 29.95 in 10.0 mi Calm Calm - N/A   Overcast
4:13 AM 57.2 °F 53.8 °F 88% 29.95 in 10.0 mi Calm Calm - N/A   Overcast
4:33 AM 57.2 °F 53.8 °F 88% 29.95 in 10.0 mi Calm Calm - N/A   Overcast
4:53 AM 56.7 °F 54.0 °F 91% 29.96 in 10.0 mi NNW 4.6 mph - N/A   Overcast
5:14 AM 56.7 °F 54.0 °F 91% 29.97 in 5.0 mi NNW 5.8 mph - N/A Rain Rain
5:34 AM 56.5 °F 54.1 °F 92% 29.97 in 5.0 mi NNW 4.6 mph - N/A Rain Light Rain
5:54 AM 56.7 °F 53.6 °F 89% 29.98 in 10.0 mi NNW 5.8 mph - N/A   Overcast
6:14 AM 56.7 °F 52.9 °F 87% 29.99 in 10.0 mi NNW 5.8 mph - N/A   Overcast
6:34 AM 56.3 °F 52.7 °F 88% 30.00 in 10.0 mi NW 4.6 mph - N/A   Overcast
6:54 AM 55.9 °F 53.1 °F 90% 30.01 in 10.0 mi NW 3.5 mph - N/A   Overcast
7:14 AM 56.3 °F 53.8 °F 91% 30.02 in 2.5 mi NW 4.6 mph - N/A Rain Rain
7:34 AM 56.5 °F 54.1 °F 92% 30.02 in 3.0 mi NW 4.6 mph - N/A   Drizzle
7:54 AM 56.3 °F 54.0 °F 92% 30.03 in 4.0 mi NNW 8.1 mph - N/A   Light Drizzle
8:15 AM 56.8 °F 53.8 °F 89% 30.04 in 10.0 mi NNW 6.9 mph - N/A   Overcast
8:35 AM 57.2 °F 54.0 °F 89% 30.05 in 10.0 mi NNW 8.1 mph - N/A   Overcast
8:55 AM 57.6 °F 54.1 °F 88% 30.05 in 10.0 mi NNW 8.1 mph - N/A   Overcast
9:15 AM 57.9 °F 53.8 °F 86% 30.06 in 10.0 mi NW 6.9 mph - N/A   Overcast
9:35 AM 58.1 °F 54.1 °F 87% 30.07 in 10.0 mi NNW 5.8 mph - N/A   Overcast
9:55 AM 58.6 °F 53.2 °F 82% 30.07 in 10.0 mi NW 6.9 mph - N/A   Overcast
10:15 AM 58.3 °F 54.1 °F 86% 30.08 in 10.0 mi NW 6.9 mph - N/A   Overcast
10:35 AM 57.6 °F 53.6 °F 87% 30.09 in 10.0 mi NNW 4.6 mph - N/A   Overcast
10:56 AM 58.1 °F 53.2 °F 84% 30.09 in 10.0 mi North 6.9 mph - N/A   Overcast
11:16 AM 58.1 °F 53.4 °F 84% 30.10 in 10.0 mi North 4.6 mph - N/A   Overcast
11:36 AM 59.0 °F 53.4 °F 82% 30.10 in 10.0 mi North 3.5 mph - N/A   Overcast
11:56 AM 59.9 °F 54.0 °F 81% 30.10 in 10.0 mi NW 5.8 mph - N/A   Overcast
12:16 PM 60.8 °F 53.8 °F 78% 30.11 in 10.0 mi NNW 6.9 mph - N/A   Overcast
12:36 PM 60.1 °F 53.8 °F 80% 30.12 in 10.0 mi WNW 9.2 mph - N/A   Overcast
12:56 PM 60.8 °F 53.6 °F 77% 30.12 in 10.0 mi NW 9.2 mph - N/A   Overcast
1:16 PM 61.0 °F 54.5 °F 79% 30.12 in 10.0 mi NW 8.1 mph - N/A   Overcast
1:36 PM 62.8 °F 55.0 °F 76% 30.13 in 10.0 mi NW 6.9 mph - N/A   Overcast
1:51 PM 63.5 °F 55.0 °F 74% 30.12 in 10.0 mi NW 9.2 mph - N/A   Overcast
2:11 PM 64.4 °F 54.7 °F 71% 30.13 in 10.0 mi North 8.1 mph - N/A   Mostly Cloudy
2:32 PM 65.3 °F 55.2 °F 70% 30.13 in 10.0 mi NNW 6.9 mph - N/A   Mostly Cloudy
2:52 PM 66.2 °F 55.4 °F 68% 30.13 in 10.0 mi WSW 8.1 mph - N/A   Scattered Clouds
3:12 PM 65.8 °F 55.4 °F 69% 30.13 in 10.0 mi West 9.2 mph - N/A   Scattered Clouds
3:32 PM 65.3 °F 54.7 °F 68% 30.14 in 10.0 mi West 10.4 mph 16.1 mph N/A   Mostly Cloudy
3:52 PM 64.9 °F 54.9 °F 70% 30.15 in 10.0 mi West 10.4 mph - N/A   Mostly Cloudy
4:12 PM 65.8 °F 55.2 °F 69% 30.15 in 10.0 mi WNW 9.2 mph - N/A   Mostly Cloudy
4:32 PM 66.0 °F 54.7 °F 67% 30.15 in 10.0 mi West 8.1 mph - N/A   Scattered Clouds
4:52 PM 65.8 °F 54.5 °F 67% 30.14 in 10.0 mi West 4.6 mph - N/A   Clear
5:13 PM 66.2 °F 54.7 °F 66% 30.14 in 10.0 mi West 5.8 mph - N/A   Clear
5:33 PM 65.7 °F 54.9 °F 68% 30.15 in 10.0 mi West 5.8 mph - N/A   Clear
5:53 PM 65.5 °F 55.0 °F 69% 30.15 in 10.0 mi West 4.6 mph - N/A   Clear
6:13 PM 65.5 °F 54.5 °F 68% 30.15 in 10.0 mi WSW 8.1 mph - N/A   Clear
6:33 PM 63.0 °F 54.5 °F 74% 30.15 in 10.0 mi SW 4.6 mph - N/A   Clear
6:53 PM 62.6 °F 54.9 °F 76% 30.15 in 10.0 mi WSW 3.5 mph - N/A   Clear
7:13 PM 64.8 °F 55.8 °F 73% 30.15 in 10.0 mi SW 4.6 mph - N/A   Clear
7:33 PM 63.7 °F 54.7 °F 72% 30.15 in 10.0 mi SW 5.8 mph - N/A   Clear
7:53 PM 63.5 °F 55.2 °F 74% 30.15 in 10.0 mi WSW 4.6 mph - N/A   Clear
8:14 PM 62.6 °F 54.9 °F 76% 30.16 in 10.0 mi WSW 3.5 mph - N/A   Clear
8:34 PM 61.9 °F 54.9 °F 78% 30.16 in 10.0 mi Calm Calm - N/A   Clear
8:54 PM 61.2 °F 54.9 °F 80% 30.16 in 10.0 mi Calm Calm - N/A   Clear
9:14 PM 59.0 °F 54.5 °F 85% 30.17 in 10.0 mi Calm Calm - N/A   Clear
9:34 PM 57.2 °F 53.6 °F 88% 30.17 in 10.0 mi Calm Calm - N/A   Clear
9:54 PM 55.6 °F 53.1 °F 91% 30.17 in 10.0 mi Calm Calm - N/A   Clear
10:14 PM 55.0 °F 52.9 °F 92% 30.18 in 10.0 mi Calm Calm - N/A   Clear
10:34 PM 54.5 °F 52.5 °F 93% 30.18 in 10.0 mi Calm Calm - N/A   Clear
10:54 PM 54.9 °F 52.9 °F 93% 30.18 in 10.0 mi Calm Calm - N/A   Clear
11:14 PM 54.1 °F 51.8 °F 92% 30.18 in 10.0 mi Calm Calm - N/A   Clear
11:35 PM 52.9 °F 50.5 °F 92% 30.18 in 10.0 mi Calm Calm - N/A   Clear
11:55 PM 52.2 °F 50.0 °F 92% 30.19 in 7.0 mi Calm Calm - N/A   Clear